Location: Artiguedieu
(43.5000°N, 0.5454°E)
Time: 11:21:56
(UTC+00:00)

CZ-4C R/B - Pass Details

Date: 06 December 2020
Orbit: 619 x 1382 km, 63.4° (Epoch: 27 January)

Event Time Altitude Azimuth Distance (km) Brightness Sun altitude
Exits shadow 05:32:18 19° 330° (NNW) 1,962 3.7 -18.2°
Maximum altitude 05:32:45 19° 336° (NNW) 1,972 3.8 -18.1°
Drops below altitude 10° 05:37:04 10° 19° (NNE) 2,721 4.9 -17.4°
Sets 05:40:48 0° 37° (NE) 3,837 5.9 -16.7°
